When you browse on this site, cookies collect data to enhance your experience and personalize the content and advertising you see.
Visit our Privacy Policy to learn more. By continuing to use the site, you agree to this use of cookies and data.
  • In Österreich
  • Länderverzeichnis
  • Für 7 Tage
  • Wassertemperatur
  • Wetterkarte
  • News
  • Widgets
  • user-avatar
    Anmelden

    Stündliche Wetter Sucre

    Heute, 22 September, Sonntag

    Zeit Temperatur Niederschläge Wind Luftdruck Luftfeuchtigkeit
    00:00 +20°C° 0.1 mm 1 m/S 655 mmHg 88%
    01:00 +19°C° 0 mm 1 m/S 655 mmHg 88%
    02:00 +19°C° 0.1 mm 1 m/S 655 mmHg 88%
    03:00 +19°C° 0.1 mm 1 m/S 655 mmHg 87%
    04:00 +19°C° 0.1 mm 1 m/S 655 mmHg 87%
    05:00 +20°C° 0 mm 1 m/S 655 mmHg 86%
    06:00 +20°C° 0 mm 1 m/S 656 mmHg 84%
    07:00 +21°C° 0 mm 1 m/S 656 mmHg 83%
    08:00 +23°C° 0 mm 1 m/S 657 mmHg 76%
    09:00 +25°C° 0 mm 1 m/S 658 mmHg 69%
    10:00 +27°C° 0 mm 1 m/S 658 mmHg 62%
    11:00 +28°C° 0.2 mm 1 m/S 658 mmHg 58%
    12:00 +29°C° 0.2 mm 1 m/S 658 mmHg 53%
    13:00 +30°C° 0.2 mm 1 m/S 657 mmHg 49%
    14:00 +29°C° 0.7 mm 1 m/S 657 mmHg 54%
    15:00 +29°C° 0.7 mm 1 m/S 656 mmHg 59%
    16:00 +28°C° 0.7 mm 2 m/S 655 mmHg 65%
    17:00 +26°C° 1.3 mm 2 m/S 655 mmHg 72%
    18:00 +24°C° 1.3 mm 2 m/S 655 mmHg 80%
    19:00 +22°C° 1.3 mm 1 m/S 655 mmHg 88%
    20:00 +21°C° 0.4 mm 1 m/S 656 mmHg 88%
    21:00 +20°C° 0.4 mm 1 m/S 656 mmHg 87%
    22:00 +20°C° 0.4 mm 1 m/S 656 mmHg 87%
    23:00 +20°C° 0.1 mm 1 m/S 656 mmHg 87%

    Morgen, 23 September, Montag

    Zeit Temperatur Niederschläge Wind Luftdruck Luftfeuchtigkeit
    00:00 +19°C° 0.1 mm 1 m/S 656 mmHg 87%
    01:00 +19°C° 0.1 mm 1 m/S 655 mmHg 87%
    02:00 +19°C° 0 mm 1 m/S 655 mmHg 87%
    03:00 +19°C° 0 mm 1 m/S 655 mmHg 86%
    04:00 +19°C° 0 mm 1 m/S 655 mmHg 86%
    05:00 +19°C° 0 mm 1 m/S 656 mmHg 84%
    06:00 +20°C° 0 mm 1 m/S 656 mmHg 82%
    07:00 +21°C° 0 mm 1 m/S 656 mmHg 80%
    08:00 +23°C° 0 mm 1 m/S 657 mmHg 72%
    09:00 +25°C° 0 mm 1 m/S 658 mmHg 65%
    10:00 +27°C° 0 mm 1 m/S 658 mmHg 57%
    11:00 +28°C° 0 mm 1 m/S 658 mmHg 52%
    12:00 +29°C° 0 mm 1 m/S 658 mmHg 48%
    13:00 +30°C° 0 mm 1 m/S 657 mmHg 44%
    14:00 +29°C° 0.3 mm 2 m/S 657 mmHg 49%
    15:00 +28°C° 0.3 mm 2 m/S 656 mmHg 55%
    16:00 +27°C° 0.3 mm 2 m/S 655 mmHg 61%
    17:00 +25°C° 0.9 mm 2 m/S 655 mmHg 70%
    18:00 +23°C° 0.9 mm 1 m/S 655 mmHg 79%
    19:00 +21°C° 0.9 mm 1 m/S 655 mmHg 89%
    20:00 +21°C° 0.1 mm 1 m/S 655 mmHg 88%
    21:00 +20°C° 0.1 mm 1 m/S 656 mmHg 87%
    22:00 +20°C° 0.1 mm 1 m/S 656 mmHg 86%
    23:00 +19°C° 0 mm 1 m/S 656 mmHg 85%

    übermorgen, 24 September, Dienstag

    Zeit Temperatur Niederschläge Wind Luftdruck Luftfeuchtigkeit
    00:00 +19°C° 0 mm 1 m/S 656 mmHg 85%
    01:00 +19°C° 0 mm 1 m/S 655 mmHg 84%
    02:00 +19°C° 0 mm 1 m/S 655 mmHg 84%
    03:00 +19°C° 0 mm 1 m/S 655 mmHg 84%
    04:00 +19°C° 0 mm 1 m/S 655 mmHg 84%
    05:00 +20°C° 0 mm 1 m/S 655 mmHg 83%
    06:00 +18°C° 0 mm 0 m/S 656 mmHg 83%
    07:00 +19°C° 0 mm 0 m/S 656 mmHg 82%
    08:00 +20°C° 0 mm 0 m/S 657 mmHg 76%
    09:00 +24°C° 0 mm 1 m/S 658 mmHg 69%
    10:00 +26°C° 0 mm 1 m/S 658 mmHg 62%
    11:00 +27°C° 0.1 mm 1 m/S 658 mmHg 59%
    12:00 +28°C° 0.1 mm 1 m/S 657 mmHg 55%
    13:00 +30°C° 0.1 mm 1 m/S 657 mmHg 52%
    14:00 +29°C° 0.5 mm 1 m/S 656 mmHg 55%
    15:00 +29°C° 0.5 mm 1 m/S 656 mmHg 57%
    16:00 +28°C° 0.5 mm 1 m/S 655 mmHg 60%
    17:00 +26°C° 1.1 mm 1 m/S 655 mmHg 68%
    18:00 +24°C° 1.1 mm 1 m/S 655 mmHg 77%
    19:00 +22°C° 1.1 mm 1 m/S 655 mmHg 86%
    20:00 +22°C° 0.9 mm 1 m/S 655 mmHg 87%
    21:00 +21°C° 0.9 mm 1 m/S 656 mmHg 87%
    22:00 +21°C° 0.9 mm 1 m/S 656 mmHg 88%
    23:00 +20°C° 0.8 mm 1 m/S 656 mmHg 88%

    25 September, Mittwoch

    Zeit Temperatur Niederschläge Wind Luftdruck Luftfeuchtigkeit
    00:00 +20°C° 0.8 mm 1 m/S 656 mmHg 88%
    01:00 +20°C° 0.8 mm 1 m/S 655 mmHg 89%
    02:00 +20°C° 0.7 mm 1 m/S 655 mmHg 89%
    03:00 +20°C° 0.7 mm 1 m/S 655 mmHg 88%
    04:00 +18°C° 0.7 mm 0 m/S 655 mmHg 88%
    05:00 +18°C° 0.2 mm 0 m/S 655 mmHg 88%
    06:00 +18°C° 0.2 mm 0 m/S 656 mmHg 88%
    07:00 +19°C° 0.2 mm 0 m/S 657 mmHg 87%
    08:00 +20°C° 0.1 mm 0 m/S 657 mmHg 85%
    09:00 +21°C° 0.1 mm 0 m/S 657 mmHg 83%
    10:00 +21°C° 0.1 mm 0 m/S 658 mmHg 81%
    11:00 +22°C° 0.6 mm 0 m/S 657 mmHg 82%
    12:00 +22°C° 0.6 mm 0 m/S 657 mmHg 82%
    13:00 +22°C° 0.6 mm 0 m/S 656 mmHg 82%
    14:00 +22°C° 0.4 mm 0 m/S 656 mmHg 81%
    15:00 +24°C° 0.4 mm 1 m/S 655 mmHg 81%
    16:00 +24°C° 0.4 mm 1 m/S 655 mmHg 80%
    17:00 +23°C° 0.2 mm 1 m/S 655 mmHg 83%
    18:00 +20°C° 0.2 mm 0 m/S 655 mmHg 85%
    19:00 +19°C° 0.2 mm 0 m/S 655 mmHg 87%
    20:00 +21°C° 0 mm 1 m/S 656 mmHg 87%
    21:00 +21°C° 0 mm 1 m/S 656 mmHg 87%
    22:00 +20°C° 0 mm 1 m/S 656 mmHg 87%
    23:00 +20°C° 0 mm 1 m/S 656 mmHg 87%

    26 September, Donnerstag

    Zeit Temperatur Niederschläge Wind Luftdruck Luftfeuchtigkeit
    00:00 +20°C° 0 mm 1 m/S 655 mmHg 87%
    01:00 +19°C° 0 mm 1 m/S 655 mmHg 87%
    02:00 +20°C° 0.2 mm 1 m/S 655 mmHg 87%
    03:00 +18°C° 0.2 mm 0 m/S 655 mmHg 88%
    04:00 +18°C° 0.2 mm 0 m/S 655 mmHg 89%
    05:00 +18°C° 0.1 mm 0 m/S 655 mmHg 89%
    06:00 +18°C° 0.1 mm 0 m/S 656 mmHg 89%
    07:00 +18°C° 0.1 mm 0 m/S 656 mmHg 89%
    08:00 +22°C° 0 mm 1 m/S 657 mmHg 81%
    09:00 +24°C° 0 mm 1 m/S 657 mmHg 73%
    10:00 +26°C° 0 mm 1 m/S 658 mmHg 65%
    11:00 +27°C° 0.2 mm 1 m/S 657 mmHg 60%
    12:00 +29°C° 0.2 mm 1 m/S 657 mmHg 55%
    13:00 +30°C° 0.2 mm 1 m/S 657 mmHg 51%
    14:00 +29°C° 0.4 mm 1 m/S 656 mmHg 53%
    15:00 +29°C° 0.4 mm 2 m/S 656 mmHg 56%
    16:00 +28°C° 0.4 mm 2 m/S 655 mmHg 59%
    17:00 +26°C° 0.5 mm 2 m/S 655 mmHg 67%
    18:00 +23°C° 0.5 mm 1 m/S 655 mmHg 75%
    19:00 +21°C° 0.5 mm 1 m/S 655 mmHg 84%
    20:00 +20°C° 0 mm 1 m/S 655 mmHg 83%
    21:00 +20°C° 0 mm 1 m/S 655 mmHg 81%
    22:00 +19°C° 0 mm 1 m/S 655 mmHg 80%
    23:00 +19°C° 0 mm 1 m/S 655 mmHg 78%

    27 September, Freitag

    Zeit Temperatur Niederschläge Wind Luftdruck Luftfeuchtigkeit
    00:00 +19°C° 0 mm 1 m/S 655 mmHg 76%
    01:00 +19°C° 0 mm 1 m/S 655 mmHg 73%
    02:00 +19°C° 0 mm 1 m/S 655 mmHg 73%
    03:00 +19°C° 0 mm 1 m/S 654 mmHg 72%
    04:00 +19°C° 0 mm 1 m/S 654 mmHg 71%
    05:00 +19°C° 0 mm 1 m/S 655 mmHg 70%
    06:00 +20°C° 0 mm 1 m/S 655 mmHg 69%
    07:00 +20°C° 0 mm 1 m/S 656 mmHg 68%
    08:00 +22°C° 0 mm 1 m/S 657 mmHg 62%
    09:00 +25°C° 0 mm 1 m/S 657 mmHg 57%
    10:00 +27°C° 0 mm 1 m/S 658 mmHg 51%
    11:00 +29°C° 0 mm 1 m/S 658 mmHg 47%
    12:00 +30°C° 0 mm 1 m/S 657 mmHg 44%
    13:00 +31°C° 0 mm 1 m/S 657 mmHg 40%
    14:00 +30°C° 0.1 mm 1 m/S 656 mmHg 47%
    15:00 +29°C° 0.1 mm 2 m/S 656 mmHg 54%
    16:00 +27°C° 0.1 mm 2 m/S 655 mmHg 61%
    17:00 +25°C° 1.2 mm 2 m/S 655 mmHg 71%
    18:00 +23°C° 1.2 mm 1 m/S 655 mmHg 80%
    19:00 +21°C° 1.2 mm 1 m/S 655 mmHg 89%
    20:00 +21°C° 0.3 mm 1 m/S 655 mmHg 89%
    21:00 +20°C° 0.3 mm 1 m/S 655 mmHg 89%
    22:00 +20°C° 0.3 mm 1 m/S 656 mmHg 89%
    23:00 +20°C° 0.2 mm 1 m/S 655 mmHg 89%
    Mehr zeigen